Current weather by "City, St" or "zip code"  
 

Current Conditions: New Haven, Tweed-New Haven Airport, CT

Light Rain Fog/Mist


47.0 F

Last Updated on Oct 29 2020, 8:53 pm EDT
Humidity: 93%
Wind Speed: NE 12.7 mph
Barometer 29.60 in
Dewpoint: 45.0 F
Visibility: 3.00 mi
Precip: 00.08 in
Heat Index: NA
Wind Chill: 41 F
Current conditions at:

New Haven, Tweed-New Haven Airport, CT (KHVN)

Lat: 41.26389 Lon: 72.88722

Local Radar Image active severe weather and emergency alerts image image weather storm and storm spotter reports image weather observation monitoring service image
Local
Radar
Active
Alerts
Storm Reports Obs
Monitoring

Sign-up For Email & Text Message Weather Alert Notification Services



Advertise Here

Observation History for New Haven, Tweed-New Haven Airport, CT


Time Wind
(mph)
Vis
(mi)
Weather Precip (in) Temperature (F) Relative
Humidity
Wind
Chill
(F)
Heat
Index
(F)
Pressure
Air Dwpt altimeter
(in)
sea level
(mb)
Rmks
8:53 pm EDT NE 12.7 3.00 Light Rain Fog/Mist 00.08 47.0 45.0 93% 41 NA 29.60 1002.3
7:53 pm EDT N 15.0 3.00 Light Rain Fog/Mist 00.06 47.0 45.0 93% 41 NA 29.63 1003.4
6:53 pm EDT N 16.1 G 24.2 7.00 Light Rain 00.03 48.0 45.0 89% 42 NA 29.62 1002.9
5:53 pm EDT NE 13.8 5.00 Fog/Mist 00.02 48.0 46.0 93% 42 NA 29.62 1002.8
4:53 pm EDT NE 12.7 2.00 Light Rain Fog/Mist 00.04 48.0 46.0 93% 43 NA 29.66 1004.2
3:53 pm EDT NE 9.2 2.50 Light Rain Fog/Mist 00.07 49.0 46.9 93% 45 NA 29.68 1004.9
2:53 pm EDT NE 11.5 2.50 Light Rain Fog/Mist 00.15 50.0 48.0 93% 46 NA 29.72 1006.4
1:53 pm EDT NE 9.2 1.75 Rain Fog/Mist 00.17 50.0 48.0 93% 46 NA 29.75 1007.3
12:53 pm EDT NE 10.4 2.50 Light Rain Fog/Mist 00.10 49.0 46.9 93% 45 NA 29.79 1008.6
11:53 am EDT NE 6.9 3.00 Light Rain Fog/Mist -- 49.0 46.9 93% 46 NA 29.86 1011.2
10:53 am EDT NE 6.9 4.00 Light Rain Fog/Mist 00.10 50.0 46.9 89% 47 NA 29.87 1011.3
9:53 am EDT NE 5.8 4.00 Light Rain Fog/Mist 00.08 50.0 48.0 93% 48 NA 29.90 1012.4
8:53 am EDT NE 3.5 4.00 Light Rain Fog/Mist 00.04 50.0 48.0 93% NA NA 29.92 1013.1
7:53 am EDT N 0.0 9.00 Mostly Cloudy -- 50.0 48.9 96% NA NA 29.92 1013.1
6:53 am EDT N 6.9 10.00 Mostly Cloudy -- 50.0 48.0 93% 47 NA 29.92 1013.0
5:53 am EDT N 4.6 10.00 Mostly Cloudy -- 50.0 48.0 93% 48 NA 29.94 1013.8
4:53 am EDT N 0.0 10.00 Overcast -- 51.0 50.0 96% NA NA 29.94 1013.6
3:53 am EDT N 0.0 8.00 Mostly Cloudy -- 49.0 46.9 93% NA NA 29.94 1013.7
1:53 am EDT N 0.0 4.00 Fog/Mist -- 47.0 46.0 97% NA NA 29.95 1014.1
12:53 am EDT N 0.0 9.00 Fair -- 49.0 48.0 97% NA NA 29.96 1014.4
11:53 pm EDT NW 4.6 10.00 Fair -- 53.0 50.0 89% 52 NA 29.96 1014.4
10:53 pm EDT NW 3.5 10.00 Fair -- 55.0 52.0 90% NA NA 29.96 1014.6
9:53 pm EDT NW 4.6 10.00 Fair -- 56.0 52.0 87% 55 NA 29.98 1015.0
8:53 pm EDT N 3.5 10.00 Fair -- 53.0 50.0 89% NA NA 29.97 1014.8

Regional Weather Observation


Bridgeport, Sikorsky Memorial Airport, CT (KBDR)

Light Rain Fog/Mist
47.0 F

Meriden, Meriden Markham Municipal Airport, CT (KMMK)

Light Rain Fog/Mist
44.0 F

New Haven, Tweed-New Haven Airport, CT (KHVN)

Light Rain Fog/Mist
47.0 F

Danbury, Danbury Municipal Airport, CT (KDXR)

Light Rain Fog/Mist
45.0 F

Hartford, Hartford-Brainard Airport, CT (KHFD)

Light Rain Fog/Mist
45.0 F

Chester, Chester Airport, CT (KSNC)

Rain
45.0 F